ZHONGXING-2E

Last updated on Sun Jun 21 2026 00:03:08 GMT+0000 (Coordinated Universal Time)

1 49062U 21071A 26171.41126538 -.00000296 00000+0 00000+0 0 9995 2 49062 0.0209 225.1100 0001673 266.6751 22.9587 1.00272973 18075
UTC large
Height (km)
Speed (km/s)
/
Latitude / Longitude
Inclination (degrees)
Orbital Period (minutes)
Azimuth
Elevation
Range (km)
Doppler Factor

Next 0 passes for location: London (51.5072 / 0.1276)

No passes found over London.
ZHONGXING-2E